Flag for Saint Kitts and Nevis Weather past 2 weeks in Basseterre, Saint Kitts and Nevis

Now
82 °F

Partly sunny.


Feels Like: 88 °F
Forecast: 80 / 82 °F
Wind: 12 mph from East

Location: Golden Rock

Current Time: Dec 22, 2014 at 9:32:53 AM

Latest Report: Dec 22, 2014 at 9:00 AM


Visibility: N/A

Pressure: 30.07 "Hg

Humidity: 74%

Dew point: 73 °F

Location of BasseterreLocation

Historic Weather in Basseterre — Graph

°F

Basseterre temperature yesterday

Maximum temperature yesterday: 84 °F (at 12:00 PM)
Minimum temperature yesterday: 77 °F (at 7:00 AM)
Average temperature yesterday: 80 °F

Past Weeks' High & Low Weather Summary

 TemperatureHumidityPressure
High84 °F (Dec 7, 10:00 AM)100% (Dec 16, 4:00 PM)30.07 "Hg (Dec 16, 4:00 PM)
Low68 °F (Dec 8, 6:00 AM)62% (Dec 7, 3:00 PM)29.86 "Hg (Dec 7, 2:00 PM)
Average80 °F80%29.97 "Hg
* Reported Dec 7 8:00 AM — Dec 22 8:00 AM, Basseterre, Weather by CustomWeather, © 2014

Note: Actual official high and low records may vary slightly from our data, if they occured in-between our weather recording intervals... More about our weather records

Advertising

Basseterre weather history for previous 24 hours

 ConditionsComfort  
Time TempWeatherWind HumidityBarometerVisibility
8:00 AM
Dec 22
81 °FScattered clouds.12 mph79%30.04 "HgN/A
7:00 AM77 °FScattered clouds.12 mph89%30.01 "HgN/A
6:00 AM77 °FPassing clouds.9 mph89%30.01 "HgN/A
1:00 AM77 °FPassing clouds.10 mph89%30.04 "HgN/A
12:00 AM77 °FPassing clouds.10 mph89%30.04 "HgN/A
11:00 PM
Dec 21
77 °FPassing clouds.10 mph89%30.04 "HgN/A
10:00 PM77 °FPassing clouds.12 mph89%30.07 "HgN/A
9:00 PM77 °FPassing clouds.10 mph83%30.04 "HgN/A
8:00 PM77 °FPassing clouds.10 mph83%30.04 "HgN/A
7:00 PM77 °FPassing clouds.12 mph83%30.01 "HgN/A
6:00 PM79 °FScattered showers. Passing clouds.14 mph84%30.01 "HgN/A
5:00 PM81 °FPartly sunny.13 mph79%30.01 "HgN/A
4:00 PM81 °FPartly sunny.14 mph79%30.01 "HgN/A
3:00 PM81 °FPartly sunny.15 mph79%30.01 "HgN/A
2:00 PM81 °FScattered clouds.10 mph79%30.01 "HgN/A
1:00 PM82 °FScattered clouds.10 mph74%30.04 "HgN/A
12:00 PM84 °FScattered clouds.15 mph74%30.04 "HgN/A
11:00 AM82 °FScattered clouds.16 mph79%30.07 "HgN/A
10:00 AM82 °FPassing clouds.14 mph79%30.07 "HgN/A
9:00 AM81 °FPassing clouds.15 mph79%30.07 "HgN/A
Weather by CustomWeather, © 2014

See weather overviewHow to use our weather pages